Location: Blangy-Tronville
(49.8790°N, 2.4226°E)
Time: 21:50:40
(UTC+00:00)

Cosmos 2369 Rocket - Pass Details

Date: 18 November 2025
Orbit: 826 x 852 km, 71.0° (Epoch: 05 December)

Event Time Altitude Azimuth Distance (km) Brightness Sun altitude
Rises 19:28:25 0° 206° (SSW) 3,360 5.5 -32.8°
Reaches altitude 10° 19:30:50 10° 206° (SSW) 2,433 4.7 -33.2°
Enters shadow 19:31:59 17° 206° (SSW) 1,998 4.3 -33.4°
